Pellston, MI

2:01 PM EDT on March 25, 2017 (GMT -0400)
Pellston Regional Airport Of Emmet County

Weather History for KPLN - September, 2013

Change the Weather History Date:

Sunday, September 1, 2013

  Actual Average Record
Temperature  
Mean Temperature 64 °F -  
Max Temperature 73 °F 74 °F 92 °F (1953)
Min Temperature 55 °F 49 °F 33 °F (2001)
Degree Days  
Heating Degree Days 1    
Growing Degree Days 14 (Base 50)    
Moisture  
Dew Point 58 °F    
Average Humidity 91    
Maximum Humidity 100    
Minimum Humidity 71    
Precipitation  
Precipitation 0.20 in - - ()
Sea Level Pressure  
Sea Level Pressure 29.79 in    
Wind  
Wind Speed 2 mph (SW)    
Max Wind Speed 16 mph    
Max Gust Speed 28 mph    
Visibility 5 miles    
Events Fog , Rain    
Averages and records for this station are not official NWS values.
T = Trace of Precipitation, MM = Missing Value Source: NWS Daily Summary

Daily Weather History Graph

Daily Weather History Graph

Search for Another Location

Airport or City:

Trip Planner

Search our weather history database for the weather conditions in past years. The results will help you decide how hot, cold, wet, or windy it might be!

Date:

Astronomy

Sep. 01, 2013 Rise Set
Actual Time 7:00 AM EDT 8:16 PM EDT
Civil Twilight 6:30 AM EDT 8:47 PM EDT
Nautical Twilight 5:53 AM EDT 9:23 PM EDT
Astronomical Twilight 5:13 AM EDT 10:02 PM EDT
Moon 3:14 AM EDT (9/1) 5:59 PM EDT (9/1)
Length of Visible Light 14h 16m
Length of Day
13h 15m
Waning Crescent, 14% of the Moon is Illuminated
Sep 1
Waning Crescent
Sep 5
New
Sep 12
First Quarter
Sep 19
Full
Sep 26
Last Quarter

Hourly Weather History & Observations

Time (EDT) Temp. Dew Point Humidity Pressure Visibility Wind Dir Wind Speed Gust Speed Precip Events Conditions
12:54 AM 57.9 °F 55.9 °F 93% 29.86 in 10.0 mi Calm Calm - N/A   Clear
1:54 AM 57.9 °F 55.9 °F 93% 29.85 in 8.0 mi Calm Calm - N/A   Clear
2:14 AM 55.4 °F 55.4 °F 100% 29.85 in 1.8 mi Calm Calm - N/A   Clear
2:23 AM 57.2 °F 55.4 °F 94% 29.84 in 3.0 mi Calm Calm - N/A   Clear
2:54 AM 55.9 °F 55.0 °F 97% 29.83 in 7.0 mi Calm Calm - N/A   Clear
3:25 AM 55.4 °F 53.6 °F 94% 29.82 in 1.5 mi Calm Calm - N/A   Clear
3:34 AM 55.4 °F 53.6 °F 94% 29.82 in 0.5 mi Calm Calm - N/A Fog Fog
3:42 AM 55.4 °F 53.6 °F 94% 29.82 in 2.0 mi Calm Calm - N/A   Clear
3:49 AM 55.4 °F 53.6 °F 94% 29.82 in 6.0 mi Calm Calm - N/A   Clear
3:51 AM 55.4 °F 53.6 °F 94% 29.82 in 2.5 mi Calm Calm - N/A   Partly Cloudy
3:54 AM 55.0 °F 54.0 °F 96% 29.82 in 1.2 mi Calm Calm - N/A   Scattered Clouds
4:02 AM 55.4 °F 53.6 °F 94% 29.82 in 2.5 mi Calm Calm - N/A   Mostly Cloudy
4:09 AM 55.4 °F 53.6 °F 94% 29.82 in 5.0 mi Calm Calm - N/A   Mostly Cloudy
4:20 AM 55.4 °F 53.6 °F 94% 29.82 in 1.8 mi Calm Calm - N/A   Overcast
4:32 AM 55.4 °F 53.6 °F 94% 29.82 in 0.5 mi Calm Calm - N/A Fog Fog
4:42 AM 55.4 °F 53.6 °F 94% 29.82 in 2.0 mi Calm Calm - N/A   Mostly Cloudy
4:51 AM 55.4 °F 53.6 °F 94% 29.82 in 4.0 mi Calm Calm - N/A   Scattered Clouds
4:54 AM 55.0 °F 54.0 °F 96% 29.82 in 6.0 mi Calm Calm - N/A   Scattered Clouds
4:59 AM 55.4 °F 53.6 °F 94% 29.82 in 1.0 mi Calm Calm - N/A   Mist
5:06 AM 55.4 °F 53.6 °F 94% 29.81 in 0.2 mi Calm Calm - N/A Fog Fog
5:20 AM 57.2 °F 55.4 °F 94% 29.82 in 0.8 mi South 3.5 mph - N/A   Mist
5:26 AM 57.2 °F 57.2 °F 100% 29.82 in 2.0 mi Calm Calm - N/A   Mostly Cloudy
5:36 AM 57.2 °F 57.2 °F 100% 29.81 in 3.0 mi SSE 3.5 mph - N/A   Mostly Cloudy
5:54 AM 57.0 °F 55.0 °F 93% 29.80 in 1.5 mi Calm Calm - N/A   Scattered Clouds
6:03 AM 57.2 °F 55.4 °F 94% 29.80 in 4.0 mi Calm Calm - N/A   Partly Cloudy
6:23 AM 55.4 °F 55.4 °F 100% 29.79 in 1.5 mi Calm Calm - N/A   Clear
6:52 AM 55.4 °F 53.6 °F 94% 29.79 in 0.5 mi Calm Calm - N/A Fog Fog
6:54 AM 55.9 °F 54.0 °F 93% 29.79 in 0.2 mi Calm Calm - N/A Fog Fog
7:18 AM 55.4 °F 53.6 °F 94% 29.80 in 1.2 mi Calm Calm - N/A   Overcast
7:37 AM 57.2 °F 55.4 °F 94% 29.79 in 3.0 mi Calm Calm - N/A   Mostly Cloudy
7:39 AM 57.2 °F 55.4 °F 94% 29.79 in 2.5 mi Calm Calm - N/A   Scattered Clouds
7:47 AM 59.0 °F 57.2 °F 94% 29.79 in 3.0 mi Calm Calm - N/A   Partly Cloudy
7:54 AM 59.0 °F 57.9 °F 96% 29.79 in 4.0 mi Calm Calm - N/A   Partly Cloudy
8:44 AM 62.6 °F 60.8 °F 94% 29.81 in 5.0 mi Calm Calm - N/A   Mostly Cloudy
8:54 AM 63.0 °F 61.0 °F 93% 29.81 in 5.0 mi Variable 3.5 mph - N/A   Mostly Cloudy
9:09 AM 64.4 °F 62.6 °F 94% 29.82 in 7.0 mi Calm Calm - N/A   Mostly Cloudy
9:54 AM 66.0 °F 63.0 °F 90% 29.81 in 8.0 mi SE 4.6 mph - N/A   Partly Cloudy
10:54 AM 68.0 °F 63.0 °F 84% 29.81 in 10.0 mi SSE 5.8 mph - N/A   Scattered Clouds
11:54 AM 69.1 °F 63.0 °F 81% 29.79 in 10.0 mi SE 8.1 mph - N/A   Clear
12:54 PM 71.1 °F 64.0 °F 78% 29.76 in 10.0 mi SE 8.1 mph - N/A   Mostly Cloudy
1:54 PM 73.0 °F 63.0 °F 71% 29.79 in 10.0 mi Calm Calm - N/A   Mostly Cloudy
2:54 PM 71.1 °F 66.0 °F 84% 29.78 in 6.0 mi Calm Calm - 0.03 in Rain Light Rain
3:54 PM 70.0 °F 66.9 °F 90% 29.72 in 10.0 mi SE 6.9 mph - 0.04 in Rain Light Rain
4:54 PM 70.0 °F 66.0 °F 87% 29.70 in 10.0 mi Calm Calm - 0.00 in Rain Light Rain
5:54 PM 73.0 °F 64.9 °F 76% 29.72 in 10.0 mi Variable 3.5 mph - N/A   Mostly Cloudy
6:54 PM 73.9 °F 64.9 °F 73% 29.68 in 10.0 mi South 5.8 mph - N/A   Clear
7:54 PM 70.0 °F 64.9 °F 84% 29.70 in 10.0 mi Variable 3.5 mph - N/A   Clear
8:54 PM 70.0 °F 64.0 °F 81% 29.72 in 7.0 mi SW 6.9 mph - 0.02 in Rain Light Rain
9:05 PM 66.2 °F 62.6 °F 88% 29.74 in 3.0 mi NW 16.1 mph 27.6 mph 0.11 in Rain Heavy Rain
9:11 PM 66.2 °F 62.6 °F 88% 29.74 in 4.0 mi NW 13.8 mph 24.2 mph 0.11 in Rain Light Rain
9:36 PM 66.2 °F 62.6 °F 88% 29.75 in 10.0 mi WNW 13.8 mph 23.0 mph 0.11 in   Overcast
9:54 PM 64.9 °F 61.0 °F 87% 29.75 in 10.0 mi WNW 16.1 mph 20.7 mph 0.11 in   Overcast
10:40 PM 64.4 °F 60.8 °F 88% 29.76 in 10.0 mi WNW 12.7 mph - N/A   Overcast
10:54 PM 63.0 °F 60.1 °F 90% 29.75 in 10.0 mi NW 13.8 mph - N/A   Overcast
11:54 PM 60.1 °F 57.0 °F 90% 29.76 in 10.0 mi WNW 11.5 mph - N/A   Overcast